Flag for Netherlands Weather past 2 weeks in Leiden, Netherlands

52 °F

Partly cloudy.

Feels Like: 46 °F
Forecast: 46 / 53 °F
Wind: 17 mph from Northwest

Location: Rotterdam Zestienhoven Airport

Current Time: Dec 1, 2015 at 12:06:26 AM

Latest Report: Nov 30, 2015 at 11:25 PM

Visibility: 3 mi

Pressure: 29.92 "Hg

Humidity: 94%

Dew point: 50 °F

Location of LeidenLocation

Historic Weather in Leiden — Graph


Leiden temperature yesterday

Maximum temperature yesterday: 55 °F (at 9:55 PM)
Minimum temperature yesterday: 45 °F (at 8:55 AM)
Average temperature yesterday: 49 °F

Past Weeks' High & Low Weather Summary

High59 °F (Nov 17, 3:55 PM)100% (Nov 17, 12:55 AM)30.24 "Hg (Nov 17, 12:55 AM)
Low28 °F (Nov 23, 2:25 AM)57% (Nov 30, 8:25 AM)29.27 "Hg (Nov 21, 9:25 AM)
Average46 °F85%29.81 "Hg
* Reported Nov 15 9:25 PM — Nov 30 9:55 PM, Leiden, Weather by CustomWeather, © 2015

Note: Actual official high and low records may vary slightly from our data, if they occured in-between our weather recording intervals... More about our weather records


Leiden weather history for previous 24 hours

Time TempWeatherWind HumidityBarometerVisibility
9:55 PM
Mon, Nov 30
55 °FMostly cloudy.24 mph88%29.86 "Hg5 mi
9:25 PM54 °FFog.29 mph94%29.86 "Hg4 mi
8:55 PM54 °FDrizzle. Overcast.31 mph94%29.83 "Hg3 mi
8:25 PM54 °FDrizzle. Overcast.30 mph94%29.83 "Hg4 mi
7:55 PM54 °FMostly cloudy.32 mph94%29.80 "Hg5 mi
7:25 PM54 °FMostly cloudy.28 mph88%29.80 "Hg5 mi
6:55 PM54 °FLight rain. Mostly cloudy.30 mph88%29.80 "Hg4 mi
6:25 PM54 °FLight rain. Mostly cloudy.32 mph88%29.80 "Hg4 mi
5:55 PM52 °FSprinkles. Mostly cloudy.31 mph94%29.80 "Hg2 mi
5:25 PM52 °FRain. Partly cloudy.33 mph94%29.80 "Hg2 mi
4:55 PM52 °FRain. Partly cloudy.31 mph94%29.80 "Hg2 mi
4:25 PM52 °FSprinkles. Broken clouds.32 mph94%29.80 "Hg2 mi
3:55 PM52 °FSprinkles. More clouds than sun.28 mph94%29.80 "Hg4 mi
3:25 PM52 °FSprinkles. Broken clouds.28 mph94%29.83 "Hg4 mi
2:55 PM52 °FSprinkles. More clouds than sun.24 mph94%29.83 "Hg3 mi
2:25 PM52 °FLight rain. Cloudy.26 mph94%29.86 "Hg4 mi
1:55 PM52 °FLight rain. Broken clouds.24 mph94%29.89 "Hg4 mi
1:25 PM52 °FSprinkles. Partly sunny.26 mph94%29.89 "Hg3 mi
12:55 PM52 °FLight rain. Partly sunny.21 mph94%29.89 "Hg5 mi
12:25 PM46 °FRain showers. Mostly cloudy.6 mph100%29.95 "Hg4 mi
11:55 AM45 °FRain showers. Mostly cloudy.5 mph100%29.98 "Hg2 mi
11:25 AM45 °FLight rain. Mostly cloudy.10 mph93%29.98 "Hg6 mi
10:55 AM45 °FSprinkles. Cloudy.10 mph87%30.01 "HgN/A
10:25 AM46 °FLight rain. Scattered clouds.8 mph82%30.01 "HgN/A
9:55 AM46 °FLight rain. Mostly cloudy.9 mph76%30.04 "HgN/A
9:25 AM46 °FDrizzle. Partly sunny.12 mph66%30.04 "HgN/A
8:55 AM45 °FBroken clouds.8 mph66%30.04 "HgN/A
8:25 AM46 °FClear.12 mph57%30.04 "HgN/A
7:55 AM46 °FClear.14 mph62%30.04 "HgN/A
7:25 AM46 °FClear.12 mph66%30.04 "HgN/A
6:55 AM46 °FPassing clouds.14 mph62%30.04 "HgN/A
6:25 AM46 °FClear.18 mph62%30.04 "HgN/A
5:55 AM46 °FPassing clouds.16 mph62%30.04 "HgN/A
5:25 AM46 °FPassing clouds.18 mph62%30.01 "HgN/A
4:25 AM46 °FPassing clouds.20 mph66%30.01 "HgN/A
3:55 AM48 °FPassing clouds.22 mph66%29.98 "HgN/A
3:25 AM48 °FPassing clouds.23 mph66%29.95 "HgN/A
2:55 AM48 °FClear.26 mph62%29.95 "HgN/A
1:55 AM50 °FPassing clouds.21 mph62%29.92 "HgN/A
1:25 AM48 °FPassing clouds.23 mph71%29.89 "HgN/A
12:55 AM50 °FPassing clouds.21 mph71%29.89 "HgN/A
12:25 AM48 °FLight rain. Partly cloudy.20 mph82%29.86 "HgN/A
Weather by CustomWeather, © 2015

See weather overviewHow to use our weather pages